Lake Charles, LA

10:54 AM CDT on April 26, 2017 (GMT -0500)
Chennault International

Weather History for KCWF - October, 2012

Change the Weather History Date:

Friday, October 19, 2012

  Actual Average Record
Temperature  
Mean Temperature 66 °F -  
Max Temperature 80 °F 77 °F 93 °F (2016)
Min Temperature 51 °F 61 °F 50 °F (2011)
Growing Degree Days 16 (Base 50)    
Moisture  
Dew Point 45 °F    
Average Humidity 59    
Maximum Humidity 88    
Minimum Humidity 16    
Precipitation  
Precipitation 0.00 in - - ()
Sea Level Pressure  
Sea Level Pressure 29.96 in    
Wind  
Wind Speed 3 mph (NW)    
Max Wind Speed 14 mph    
Max Gust Speed 20 mph    
Visibility 10 miles    
Events      
Averages and records for this station are not official NWS values.
T = Trace of Precipitation, MM = Missing Value Source: NWS Daily Summary

Daily Weather History Graph

Daily Weather History Graph

Search for Another Location

Airport or City:

Trip Planner

Search our weather history database for the weather conditions in past years. The results will help you decide how hot, cold, wet, or windy it might be!

Date:

Astronomy

Oct. 19, 2012 Rise Set
Actual Time 7:17 AM CDT 6:36 PM CDT
Civil Twilight 6:53 AM CDT 7:01 PM CDT
Nautical Twilight 6:25 AM CDT 7:28 PM CDT
Astronomical Twilight 5:57 AM CDT 7:56 PM CDT
Moon 11:46 AM CDT (10/19) 10:29 PM CDT (10/19)
Length of Visible Light 12h 07m
Length of Day
11h 19m
Waxing Crescent, 24% of the Moon is Illuminated
Oct 19
Waxing Crescent
Oct 21
First Quarter
Oct 29
Full
Nov 6
Last Quarter
Nov 13
New

Hourly Weather History & Observations

Time (CDT) Temp. Dew Point Humidity Pressure Visibility Wind Dir Wind Speed Gust Speed Precip Events Conditions
1:15 AM 59.0 °F 48.6 °F 68% 29.96 in 10.0 mi North 4.6 mph - N/A   Clear
1:35 AM 59.4 °F 48.4 °F 67% 29.96 in 10.0 mi North 3.5 mph - N/A   Clear
1:55 AM 58.5 °F 48.6 °F 70% 29.96 in 10.0 mi North 3.5 mph - N/A   Clear
2:15 AM 59.0 °F 48.4 °F 68% 29.95 in 10.0 mi Calm Calm - N/A   Clear
2:35 AM 57.7 °F 48.4 °F 71% 29.95 in 10.0 mi Calm Calm - N/A   Clear
2:55 AM 56.8 °F 48.2 °F 73% 29.95 in 10.0 mi North 3.5 mph - N/A   Clear
3:15 AM 56.7 °F 47.1 °F 70% 29.95 in 10.0 mi North 3.5 mph - N/A   Clear
3:35 AM 57.2 °F 46.6 °F 68% 29.95 in 10.0 mi NNW 4.6 mph - N/A   Clear
3:55 AM 56.3 °F 46.8 °F 70% 29.95 in 10.0 mi North 4.6 mph - N/A   Clear
4:15 AM 55.9 °F 46.6 °F 71% 29.95 in 10.0 mi North 3.5 mph - N/A   Clear
4:35 AM 55.8 °F 46.8 °F 72% 29.95 in 10.0 mi Calm Calm - N/A   Clear
4:55 AM 56.3 °F 46.8 °F 70% 29.95 in 10.0 mi Calm Calm - N/A   Clear
5:15 AM 55.6 °F 46.9 °F 73% 29.96 in 10.0 mi Calm Calm - N/A   Clear
5:35 AM 53.2 °F 47.7 °F 81% 29.97 in 10.0 mi Calm Calm - N/A   Clear
5:55 AM 53.6 °F 47.3 °F 79% 29.97 in 10.0 mi Calm Calm - N/A   Clear
6:00 AM 53.6 °F 46.4 °F 77% 29.97 in 10.0 mi Calm Calm - N/A   Clear
6:50 AM 51.8 °F 46.4 °F 82% 29.97 in 10.0 mi Calm Calm - N/A   Clear
7:55 AM 51.8 °F 48.2 °F 88% 29.97 in 10.0 mi Calm Calm - N/A   Clear
8:50 AM 59.0 °F 48.2 °F 67% 29.99 in 10.0 mi Calm Calm - N/A   Clear
9:50 AM 68.0 °F 46.4 °F 46% 30.01 in 10.0 mi Calm Calm - N/A   Clear
10:50 AM 73.4 °F 39.2 °F 29% 30.01 in 10.0 mi WNW 6.9 mph - N/A   Clear
11:50 AM 77.0 °F 35.6 °F 22% 30.00 in 10.0 mi NNW 10.4 mph 16.1 mph N/A   Clear
12:50 PM 78.8 °F 30.2 °F 17% 29.99 in 10.0 mi WNW 12.7 mph - N/A   Clear
1:50 PM 78.8 °F 33.8 °F 20% 29.96 in 10.0 mi West 12.7 mph 19.6 mph N/A   Clear
2:50 PM 80.6 °F 33.8 °F 18% 29.94 in 10.0 mi NW 11.5 mph - N/A   Clear
3:50 PM 80.6 °F 30.2 °F 16% 29.92 in 10.0 mi NW 13.8 mph 16.1 mph N/A   Clear
4:46 PM 80.6 °F 32.0 °F 17% 29.92 in 10.0 mi WNW 8.1 mph - N/A   Clear
5:48 PM 78.8 °F 33.8 °F 20% 29.92 in 10.0 mi WNW 6.9 mph - N/A   Clear
6:45 PM 71.6 °F 39.2 °F 31% 29.92 in 10.0 mi WNW 4.6 mph - N/A   Clear
7:45 PM 68.0 °F 42.8 °F 40% 29.94 in 10.0 mi Calm Calm - N/A   Clear
8:45 PM 62.6 °F 46.4 °F 55% 29.94 in 10.0 mi Calm Calm - N/A   Clear
9:45 PM 59.0 °F 48.2 °F 67% 29.94 in 10.0 mi Calm Calm - N/A   Clear
9:49 PM 59.0 °F 48.2 °F 67% 29.94 in 10.0 mi Calm Calm - N/A   Clear
10:15 PM 59.2 °F 48.7 °F 68% 29.94 in 10.0 mi Calm Calm - N/A   Clear
10:35 PM 58.8 °F 49.1 °F 70% 29.94 in 10.0 mi Calm Calm - N/A   Clear
10:55 PM 58.3 °F 49.3 °F 72% 29.95 in 10.0 mi Calm Calm - N/A   Clear
11:15 PM 55.4 °F 49.8 °F 81% 29.95 in 10.0 mi Calm Calm - N/A   Clear
11:35 PM 55.8 °F 50.4 °F 82% 29.95 in 10.0 mi Calm Calm - N/A   Clear
11:55 PM 55.6 °F 49.8 °F 81% 29.95 in 10.0 mi Calm Calm - N/A   Clear